Weather History for Thedford, NE

Change the Weather History Date:

Friday, October 7, 2011

  Actual Average (KLBF) Record (KLBF)
Temperature  
Mean Temperature 64 °F 53 °F  
Max Temperature 77 °F 68 °F 92 °F (1934)
Min Temperature 50 °F 37 °F 12 °F (1952)
Degree Days  
Heating Degree Days 2 13  
Month to date heating degree days 80  
Since 1 July heating degree days 251  
Cooling Degree Days 0 0  
Month to date cooling degree days 0  
Year to date cooling degree days 765  
Growing Degree Days 14 (Base 50)    
Moisture  
Dew Point 39 °F    
Average Humidity 49    
Maximum Humidity 88    
Minimum Humidity 14    
Precipitation  
Precipitation 0.00 in 0.05 in 1.48 in (1946)
Month to date precipitation 0.38  
Year to date precipitation 18.01  
Snow  
Snow 0.00 in 0.00 in 0.20 in (1884)
Month to date snowfall 0.2  
Since 1 July snowfall 0.4  
Since 1 September snowfall 0.4  
Snow Depth -    
Sea Level Pressure  
Sea Level Pressure 29.76 in    
Wind  
Wind Speed 11 mph (SSW)    
Max Wind Speed 29 mph    
Max Gust Speed 38 mph    
Visibility 10 miles    
Events Rain    
T = Trace of Precipitation, MM = Missing Value Source: NWS Daily Summary

Daily Weather History Graph

Daily Weather History Graph

Search for Another Location

Airport:

Trip Planner

Search our weather history database for the weather conditions in past years. The results will help you decide how hot, cold, wet, or windy it might be!

Date:

Astronomy

Oct. 07, 2011 Rise Set
Actual Time 7:45 AM CDT 7:14 PM CDT
Civil Twilight 7:17 AM CDT 7:41 PM CDT
Nautical Twilight 6:45 AM CDT 8:14 PM CDT
Astronomical Twilight 6:12 AM CDT 8:46 PM CDT
Moon 5:01 PM CDT (10/7) 3:32 AM CDT (10/7)
Length of Visible Light 12h 24m
Length of Day
11h 28m
Waxing Gibbous, 83% of the Moon is Illuminated
Oct 7
Waxing Gibbous
Oct 11
Full
Oct 19
Last Quarter
Oct 26
New
Nov 2
First Quarter

Hourly Weather History & Observations

Time (CDT) Temp. Dew Point Humidity Pressure Visibility Wind Dir Wind Speed Gust Speed Precip Events Conditions
12:15 AM 62.6 °F 59.0 °F 88% 29.64 in 10.0 mi South 15.0 mph 21.9 mph N/A   Scattered Clouds
12:35 AM 62.6 °F 59.0 °F 88% 29.66 in 10.0 mi South 12.7 mph 17.3 mph N/A   Mostly Cloudy
12:55 AM 64.4 °F 59.0 °F 83% 29.66 in 10.0 mi South 18.4 mph 24.2 mph N/A   Overcast
1:15 AM 62.6 °F 59.0 °F 88% 29.66 in 10.0 mi South 13.8 mph 19.6 mph N/A   Scattered Clouds
1:35 AM 62.6 °F 59.0 °F 88% 29.68 in 10.0 mi West 5.8 mph - N/A   Mostly Cloudy
1:55 AM 60.8 °F 48.2 °F 63% 29.67 in 10.0 mi Calm Calm - N/A   Overcast
2:35 AM 57.2 °F 50.0 °F 77% 29.69 in 10.0 mi NNW 4.6 mph - N/A Rain Light Rain
2:55 AM 59.0 °F 50.0 °F 72% 29.68 in 10.0 mi Calm Calm - N/A   Mostly Cloudy
3:15 AM 57.2 °F 48.2 °F 72% 29.68 in 10.0 mi Calm Calm - N/A   Mostly Cloudy
3:35 AM 57.2 °F 51.8 °F 82% 29.69 in 10.0 mi Calm Calm - N/A   Mostly Cloudy
3:55 AM 57.2 °F 51.8 °F 82% 29.68 in 10.0 mi Calm Calm - N/A   Mostly Cloudy
4:15 AM 59.0 °F 55.4 °F 88% 29.69 in 10.0 mi SW 4.6 mph - N/A   Overcast
4:35 AM 59.0 °F 55.4 °F 88% 29.70 in 10.0 mi SSW 4.6 mph - N/A   Mostly Cloudy
4:55 AM 55.4 °F 51.8 °F 88% 29.71 in 10.0 mi West 6.9 mph - N/A   Mostly Cloudy
5:15 AM 53.6 °F 50.0 °F 88% 29.72 in 10.0 mi Calm Calm - N/A   Mostly Cloudy
5:35 AM 53.6 °F 50.0 °F 88% 29.73 in 10.0 mi WSW 3.5 mph - N/A   Overcast
5:55 AM 53.6 °F 50.0 °F 88% 29.74 in 10.0 mi WSW 6.9 mph - N/A   Overcast
6:15 AM 53.6 °F 48.2 °F 82% 29.73 in 10.0 mi Calm Calm - N/A   Overcast
6:35 AM 53.6 °F 46.4 °F 77% 29.74 in 10.0 mi SW 4.6 mph - N/A   Overcast
6:55 AM 51.8 °F 46.4 °F 82% 29.75 in 10.0 mi SSW 4.6 mph - N/A   Mostly Cloudy
7:15 AM 51.8 °F 44.6 °F 76% 29.76 in 10.0 mi SSW 5.8 mph - N/A   Mostly Cloudy
7:35 AM 51.8 °F 42.8 °F 71% 29.75 in 10.0 mi SW 5.8 mph - N/A   Overcast
7:55 AM 51.8 °F 42.8 °F 71% 29.76 in 10.0 mi SW 4.6 mph - N/A   Mostly Cloudy
8:15 AM 50.0 °F 42.8 °F 76% 29.77 in 10.0 mi South 6.9 mph - N/A   Clear
8:35 AM 50.0 °F 39.2 °F 66% 29.78 in 10.0 mi South 8.1 mph - N/A   Clear
8:55 AM 51.8 °F 41.0 °F 67% 29.78 in 10.0 mi SSW 8.1 mph - N/A   Clear
9:15 AM 51.8 °F 39.2 °F 62% 29.78 in 10.0 mi SSW 9.2 mph - N/A   Clear
9:35 AM 53.6 °F 39.2 °F 58% 29.78 in 10.0 mi SSW 9.2 mph - N/A   Clear
9:55 AM 55.4 °F 39.2 °F 54% 29.79 in 10.0 mi SSW 11.5 mph 18.4 mph N/A   Clear
10:15 AM 59.0 °F 37.4 °F 45% 29.79 in 10.0 mi SSW 12.7 mph - N/A   Clear
10:35 AM 60.8 °F 32.0 °F 34% 29.80 in 10.0 mi SW 13.8 mph 19.6 mph N/A   Clear
10:55 AM 62.6 °F 32.0 °F 32% 29.80 in 10.0 mi SW 13.8 mph 23.0 mph N/A   Clear
11:15 AM 64.4 °F 32.0 °F 30% 29.80 in 10.0 mi SW 20.7 mph 24.2 mph N/A   Clear
11:35 AM 66.2 °F 30.2 °F 26% 29.80 in 10.0 mi SW 17.3 mph 26.5 mph N/A   Clear
11:55 AM 68.0 °F 26.6 °F 21% 29.80 in 10.0 mi SW 18.4 mph 26.5 mph N/A   Clear
12:15 PM 69.8 °F 23.0 °F 17% 29.80 in 10.0 mi SSW 21.9 mph 33.4 mph N/A   Clear
12:35 PM 69.8 °F 21.2 °F 16% 29.80 in 10.0 mi SW 26.5 mph 35.7 mph N/A   Clear
12:55 PM 71.6 °F 21.2 °F 15% 29.79 in 10.0 mi SSW 25.3 mph 35.7 mph N/A   Clear
1:15 PM 71.6 °F 21.2 °F 15% 29.79 in 10.0 mi SSW 25.3 mph 33.4 mph N/A   Clear
1:35 PM 71.6 °F 21.2 °F 15% 29.80 in 10.0 mi SSW 25.3 mph 33.4 mph N/A   Clear
1:55 PM 71.6 °F 19.4 °F 14% 29.79 in 10.0 mi SSW 26.5 mph 33.4 mph N/A   Clear
2:15 PM 71.6 °F 19.4 °F 14% 29.79 in 10.0 mi SSW 24.2 mph 33.4 mph N/A   Clear
2:35 PM 71.6 °F 21.2 °F 15% 29.79 in 10.0 mi SW 28.8 mph 38.0 mph N/A   Clear
2:55 PM 71.6 °F 21.2 °F 15% 29.79 in 10.0 mi SW 18.4 mph 32.2 mph N/A   Clear
3:15 PM 73.4 °F 23.0 °F 15% 29.78 in 10.0 mi SW 25.3 mph 32.2 mph N/A   Clear
3:35 PM 73.4 °F 23.0 °F 15% 29.79 in 10.0 mi SSW 19.6 mph 26.5 mph N/A   Clear
4:15 PM 75.2 °F 26.6 °F 17% 29.78 in 10.0 mi SSW 23.0 mph 29.9 mph N/A   Clear
4:35 PM 77.0 °F 28.4 °F 17% 29.77 in 10.0 mi South 24.2 mph 29.9 mph N/A   Clear
4:55 PM 77.0 °F 28.4 °F 17% 29.78 in 10.0 mi South 19.6 mph 29.9 mph N/A   Clear
5:15 PM 77.0 °F 28.4 °F 17% 29.78 in 10.0 mi SSW 20.7 mph 28.8 mph N/A   Clear
5:35 PM 77.0 °F 30.2 °F 18% 29.78 in 10.0 mi South 18.4 mph 31.1 mph N/A   Clear
5:55 PM 73.4 °F 32.0 °F 22% 29.78 in 10.0 mi South 20.7 mph 32.2 mph N/A   Clear
6:15 PM 73.4 °F 32.0 °F 22% 29.78 in 10.0 mi South 19.6 mph 29.9 mph N/A   Clear
6:35 PM 73.4 °F 32.0 °F 22% 29.79 in 10.0 mi South 15.0 mph 25.3 mph N/A   Clear
6:55 PM 71.6 °F 33.8 °F 25% 29.79 in 10.0 mi South 11.5 mph - N/A   Clear
7:15 PM 69.8 °F 35.6 °F 28% 29.79 in 10.0 mi SSE 10.4 mph - N/A   Clear
7:35 PM 68.0 °F 35.6 °F 30% 29.79 in 10.0 mi SSE 10.4 mph - N/A   Clear
7:55 PM 64.4 °F 37.4 °F 37% 29.80 in 10.0 mi South 10.4 mph - N/A   Clear
8:15 PM 64.4 °F 37.4 °F 37% 29.81 in 10.0 mi SSE 9.2 mph - N/A   Clear
8:35 PM 62.6 °F 41.0 °F 45% 29.81 in 10.0 mi SSE 9.2 mph - N/A   Clear
8:55 PM 62.6 °F 41.0 °F 45% 29.82 in 10.0 mi SSE 10.4 mph - N/A   Clear
9:15 PM 62.6 °F 41.0 °F 45% 29.83 in 10.0 mi South 9.2 mph - N/A   Clear
9:35 PM 60.8 °F 41.0 °F 48% 29.84 in 10.0 mi SSE 12.7 mph - N/A   Clear
9:55 PM 60.8 °F 42.8 °F 52% 29.85 in 10.0 mi SSE 9.2 mph - N/A   Clear
10:15 PM 59.0 °F 42.8 °F 55% 29.85 in 10.0 mi NW 5.8 mph - N/A   Clear
10:35 PM 60.8 °F 41.0 °F 48% 29.87 in 10.0 mi Calm Calm - N/A   Mostly Cloudy
10:55 PM 60.8 °F 42.8 °F 52% 29.87 in 10.0 mi Calm Calm - N/A   Overcast
11:15 PM 62.6 °F 42.8 °F 48% 29.89 in 10.0 mi WSW 5.8 mph - N/A   Overcast
11:35 PM 62.6 °F 50.0 °F 63% 29.89 in 10.0 mi SSW 9.2 mph - N/A   Overcast
11:55 PM 62.6 °F 48.2 °F 59% 29.89 in 10.0 mi SW 3.5 mph - N/A   Overcast